Back to catalog

THOR ABLESTAR DEB

AliveLEO
NORAD 147·DEBRIS·🇺🇸 United States

Launched Jun 29, 1961 from Cape Canaveral Space Force Station

Loading…

Next Passes (next 24 hours)

TLE

FreshSource: Space-Track

Epoch: Sep 9, 2026, 02:09 UTC

1 00147U 61015AH  26252.09005729  .00000559  00000-0  27473-3 0  9999
2 00147  66.6164 142.4776 0048537  11.1760 349.0401 14.24383338346415

Track THOR ABLESTAR DEB in real time with AllMySat

Download on the App Store